Home   Weather   Hollywood   Past weeks

Flag for USA Past Weather in Hollywood, Florida, USA — Yesterday and Last 2 Weeks

Now
79 °F

Partly cloudy.


Feels Like: 82 °F
Forecast: 79 / 88 °F
Wind: 8 mph from South

Location: Fort Lauderdale / Hollywood International Airport

Current Time: May 23, 2017 at 3:13:57 am

Latest Report: May 23, 2017 at 1:53 am


Visibility: 10 mi

Pressure: 29.98 "Hg

Humidity: 77%

Dew Point: 71 °F

Location of HollywoodLocation

Past Weather in Hollywood — Graph

°F

Hollywood Temperature Yesterday

Maximum temperature yesterday: 86 °F (at 12:53 pm)
Minimum temperature yesterday: 78 °F (at 2:53 am)
Average temperature yesterday: 81 °F

High & Low Weather Summary for the Past Weeks

 TemperatureHumidityPressure
High91 °F (May 13, 5:15 pm)94% (May 19, 12:53 am)30.12 "Hg (May 19, 12:53 am)
Low66 °F (May 8, 4:53 am)40% (May 8, 11:53 am)29.80 "Hg (May 13, 5:15 pm)
Average80 °F70%29.99 "Hg
* Reported May 8 1:53 am — May 23 1:53 am, Hollywood. Weather by CustomWeather, © 2017

Note: Actual official high and low records may vary slightly from our data, if they occured in-between our weather recording intervals... More about our weather records

Advertising

Hollywood Weather History for the Previous 24 Hours

Scroll right to see more
 ConditionsComfort  
Time TempWeatherWind HumidityBarometerVisibility
1:53 am
Tue, May 23
79 °FPartly cloudy.8 mph77%29.98 "Hg10 mi
12:53 am79 °FPassing clouds.8 mph74%30.00 "Hg10 mi
11:53 pm
Mon, May 22
80 °FPassing clouds.6 mph71%30.04 "Hg10 mi
10:53 pm80 °FPassing clouds.9 mph71%30.03 "Hg10 mi
9:53 pm80 °FPassing clouds.9 mph69%30.02 "Hg10 mi
8:53 pm80 °FPassing clouds.12 mph67%30.01 "Hg10 mi
7:53 pm81 °FPassing clouds.10 mph67%29.99 "Hg10 mi
6:53 pm83 °FPassing clouds.14 mph65%29.98 "Hg10 mi
5:53 pm83 °FPassing clouds.16 mph65%29.98 "Hg10 mi
4:53 pm84 °FPassing clouds.15 mph63%29.99 "Hg10 mi
3:53 pm85 °FPassing clouds.16 mph61%30.00 "Hg10 mi
2:53 pm85 °FScattered clouds.15 mph61%30.02 "Hg10 mi
1:53 pm84 °FScattered clouds.13 mph63%30.04 "Hg10 mi
12:53 pm86 °FScattered clouds.15 mph59%30.06 "Hg10 mi
11:53 am85 °FPassing clouds.10 mph55%30.07 "Hg10 mi
10:53 am84 °FPassing clouds.7 mph61%30.08 "Hg10 mi
9:53 am83 °FSunny.6 mph65%30.09 "Hg10 mi
8:53 am82 °FBroken clouds.3 mph67%30.09 "Hg10 mi
7:53 am80 °FBroken clouds.No wind74%30.08 "Hg10 mi
6:53 am78 °FScattered clouds.No wind79%30.07 "Hg10 mi
5:53 am78 °FPassing clouds.No wind79%30.04 "Hg10 mi
4:53 am78 °FPassing clouds.No wind76%30.04 "Hg10 mi
3:53 am78 °FPassing clouds.No wind76%30.05 "Hg10 mi
Weather by CustomWeather, © 2017

See weather overviewHow to use our weather pages